Weather Roundup
Issued by NWS

Home | Current Version | Previous Version | Text Only | Print | Product List | Glossary On
Versions: 1 2 3 4 5 6 7 8 9 10 11 12 13 14 15 16 17 18 19 20 21 22 23 24 25 26 27 28 29 30 31 32 33 34 35 36 37 38 39 40 41 42 43 44 45 46 47 48 49 50
000
NZUS93 KARX 290010
HRRWXR

CURRENT HOURLY OBSERVATIONS ACROSS
MUCH OF THE UPPER MISSISSIPPI VALLEY
NATIONAL WEATHER SERVICE LA CROSSE WI
700 PM CDT SAT MAY 28 2016


...SOUTHEAST MINNESOTA...


CITY           SKY/WX    TMP DP  RH WIND       PRES   REMARKS
ROCHESTER      LGT RAIN  65  60  84 S3        29.79S
ROCHESTER/MAYO CLOUDY    65  60  84 CALM      29.78S
WINONA         LGT RAIN  64  59  82 NW10      29.79R
AUSTIN         CLOUDY    64  57  77 S3        29.78R
ALBERT LEA     CLOUDY    66  63  88 CALM      29.79R
DODGE CENTER   CLOUDY    64  63  94 SW6       29.78R
PRESTON        CLOUDY    63  58  86 N6        29.80R
OWATONNA       PTSUNNY   68  61  77 SW6       29.78R
FARIBAULT      PTSUNNY   66  63  88 CALM      29.77S
$$

...ELSEWHERE IN MINNESOTA...


CITY           SKY/WX    TMP DP  RH WIND       PRES   REMARKS
MINNEAPOLIS    LGT RAIN  65  60  84 N3        29.77S
INTNL FALLS    LGT RAIN  59  57  93 NE6       29.81S VSB 3/4
DULUTH         LGT RAIN  55  53  93 CALM      29.80F FOG
RED WING       CLOUDY    68  64  88 CALM      29.75S
REDWOOD FALLS  CLOUDY    66  59  78 NW5       29.79S
MANKATO        CLOUDY    66  61  82 N8        29.78R
WORTHINGTON    CLOUDY    64  59  83 NE13      29.82R
FAIRMONT       CLOUDY    63  59  88 CALM      29.78R
$$

...SOUTHWEST WISCONSIN...


CITY           SKY/WX    TMP DP  RH WIND       PRES   REMARKS
LA CROSSE      CLOUDY    73  62  68 S12       29.77R
PRAIRIE DU CHI MOSUNNY   71  62  71 S3        29.80R
BOSCOBEL       LGT RAIN  70  66  87 VRB3      29.81R
LONE ROCK      CLOUDY    70  63  78 S7        29.82R
PLATTEVILLE    CLOUDY    69  66  92 S8        29.83R
FORT MC COY    CLOUDY    67  65  93 SE7       29.80F
CAMP DOUGLAS   CLOUDY    68  68 100 SE6       29.80F
MAUSTON-NEW LI CLOUDY    67  64  91 S6        29.80R
VIROQUA        MOCLDY    68  65  90 S5        29.81R
WIS DELLS      CLOUDY    68  62  81 S9G16     29.84R
$$

...ELSEWHERE IN WISCONSIN...


CITY           SKY/WX    TMP DP  RH WIND       PRES   REMARKS
MILWAUKEE      MOSUNNY   76  63  64 SE10      29.86R
MADISON        TSTM      67  60  78 SW16G31   29.84R
GREEN BAY      SUNNY     80  63  55 S13G22    29.82R
EAU CLAIRE     LGT RAIN  65  60  84 W9        29.77R
BLACK RVR FLS  MOCLDY    72  62  68 S6        29.78R
MEDFORD        CLOUDY    73  63  69 S6        29.79S
WAUSAU         PTSUNNY   76  60  57 S3        29.79R
WIS RAPIDS     CLOUDY    72  64  76 CALM      29.80S
MARSHFIELD     CLOUDY    75  59  57 S8        29.79S
RICE LAKE      LGT RAIN  61  58  90 CALM      29.79F
$$

...NORTHEAST IOWA...


CITY           SKY/WX    TMP DP  RH WIND       PRES   REMARKS
WATERLOO       CLOUDY    71  61  70 SW14      29.79R
DUBUQUE        MOSUNNY   74  62  66 SW16G24   29.82R
DECORAH        PTSUNNY   70  64  83 VRB7G17   29.78R
MASON CITY     PTSUNNY   65  62  90 SE5       29.79S
CHARLES CITY   CLOUDY    68  64  88 CALM      29.80R
OELWEIN        PTSUNNY   72  66  83 SW15      29.81R
$$

...ELSEWHERE IN IOWA...


CITY           SKY/WX    TMP DP  RH WIND       PRES   REMARKS
DES MOINES     MOSUNNY   74  58  57 SW14      29.81R
IOWA CITY      CLOUDY    76  60  57 SW17G28   29.84R
FORT DODGE     PTSUNNY   70  55  60 S10       29.78R
MARSHALLTOWN   PTSUNNY   70  62  76 S15       29.80R
CEDAR RAPIDS   CLOUDY    72  64  76 SW14      29.82R
$$

...NORTHERN ILLINOIS...


CITY           SKY/WX    TMP DP  RH WIND       PRES   REMARKS
CHICAGO-OHARE  PTSUNNY   79  64  60 S22G30    29.88R
CHICAGO-MIDWAY PTSUNNY   82  62  50 S16G25    29.89R
MOLINE         PTSUNNY   80  62  54 SW14G23   29.83R
ROCKFORD       PTSUNNY   82  58  43 SW18G31   29.86R THUNDER
PEORIA         MOSUNNY   81  63  54 S18       29.86S
$$

NOTE: "FAIR" INDICATES FEW OR NO CLOUDS BELOW 12,000 FEET WITH NO
SIGNIFICANT WEATHER AND/OR OBSTRUCTIONS TO VISIBILITY. WIND
SPEEDS ARE IN MILES-PER-HOUR.




USA.gov is the U.S. government's official web portal to all federal, state and local government web resources and services.